Weather History for Decorah, IA

Change the Weather History Date:

Thursday, December 19, 2013

  Actual Average Record
Temperature  
Mean Temperature 28 °F -  
Max Temperature 33 °F 29 °F 49 °F (1988)
Min Temperature 24 °F 12 °F -27 °F (1983)
Degree Days  
Heating Degree Days 36    
Moisture  
Dew Point 22 °F    
Average Humidity 80    
Maximum Humidity 93    
Minimum Humidity 69    
Precipitation  
Precipitation 0.00 in - - ()
Sea Level Pressure  
Sea Level Pressure 29.85 in    
Wind  
Wind Speed 8 mph (NNE)    
Max Wind Speed 14 mph    
Max Gust Speed 21 mph    
Visibility 9 miles    
Events      
Averages and records for this station are not official NWS values.
T = Trace of Precipitation, MM = Missing Value Source: NWS Daily Summary

Daily Weather History Graph

Daily Weather History Graph

Search for Another Location

Airport:

Trip Planner

Search our weather history database for the weather conditions in past years. The results will help you decide how hot, cold, wet, or windy it might be!

Date:

Astronomy

Dec. 19, 2013 Rise Set
Actual Time 7:35 AM CST 4:33 PM CST
Civil Twilight 7:02 AM CST 5:06 PM CST
Nautical Twilight 6:26 AM CST 5:42 PM CST
Astronomical Twilight 5:51 AM CST 6:16 PM CST
Moon 7:03 PM CST (12/19) 8:50 AM CST (12/19)
Length of Visible Light 10h 03m
Length of Day
8h 58m
Waning Gibbous, 95% of the Moon is Illuminated
Dec 19
Waning Gibbous
Dec 25
Last Quarter
Jan 1
New
Jan 7
First Quarter
Jan 15
Full

Hourly Weather History & Observations

Time (CST) Temp. Windchill Dew Point Humidity Pressure Visibility Wind Dir Wind Speed Gust Speed Precip Events Conditions
12:15 AM 33.8 °F 28.6 °F 28.4 °F 81% 29.77 in 10.0 mi NW 5.8 mph - N/A   Clear
12:35 AM 33.8 °F 27.0 °F 28.4 °F 81% 29.77 in 10.0 mi NW 8.1 mph - N/A   Clear
12:55 AM 32.0 °F 26.4 °F 28.4 °F 87% 29.76 in 10.0 mi NW 5.8 mph - N/A   Clear
1:15 AM 32.0 °F 25.6 °F 28.4 °F 87% 29.77 in 10.0 mi NW 6.9 mph - N/A   Clear
1:35 AM 32.0 °F 24.2 °F 28.4 °F 87% 29.77 in 10.0 mi NW 9.2 mph - N/A   Clear
1:55 AM 32.0 °F 24.8 °F 28.4 °F 87% 29.77 in 10.0 mi WNW 8.1 mph - N/A   Clear
2:15 AM 32.0 °F 25.6 °F 28.4 °F 87% 29.79 in 10.0 mi WNW 6.9 mph - N/A   Clear
2:35 AM 32.0 °F 25.6 °F 28.4 °F 87% 29.79 in 10.0 mi NW 6.9 mph - N/A   Clear
2:55 AM 30.2 °F 24.3 °F 26.6 °F 86% 29.79 in 10.0 mi North 5.8 mph - N/A   Clear
3:15 AM 30.2 °F 22.6 °F 26.6 °F 86% 29.80 in 10.0 mi NNW 8.1 mph - N/A   Clear
3:35 AM 30.2 °F 24.3 °F 26.6 °F 86% 29.80 in 10.0 mi NNW 5.8 mph - N/A   Clear
3:55 AM 30.2 °F 22.6 °F 26.6 °F 86% 29.80 in 10.0 mi North 8.1 mph - N/A   Clear
4:15 AM 30.2 °F 24.3 °F 24.8 °F 80% 29.81 in 10.0 mi North 5.8 mph - N/A   Clear
4:35 AM 30.2 °F 21.9 °F 24.8 °F 80% 29.80 in 10.0 mi North 9.2 mph - N/A   Clear
4:55 AM 30.2 °F 23.4 °F 24.8 °F 80% 29.81 in 10.0 mi North 6.9 mph - N/A   Clear
5:15 AM 28.4 °F 20.4 °F 24.8 °F 86% 29.81 in 10.0 mi North 8.1 mph - N/A   Clear
5:35 AM 28.4 °F 21.2 °F 24.8 °F 86% 29.82 in - NNE 6.9 mph - N/A   Clear
5:55 AM 28.4 °F 22.2 °F 24.8 °F 86% 29.82 in 10.0 mi North 5.8 mph - N/A   Clear
6:15 AM 28.4 °F 22.2 °F 24.8 °F 86% 29.83 in 10.0 mi NNE 5.8 mph - N/A   Clear
6:35 AM 28.4 °F 22.2 °F 24.8 °F 86% 29.85 in 10.0 mi North 5.8 mph - N/A   Clear
6:55 AM 28.4 °F 21.2 °F 24.8 °F 86% 29.86 in 10.0 mi North 6.9 mph - N/A   Clear
7:15 AM 28.4 °F 21.2 °F 24.8 °F 86% 29.86 in 10.0 mi NNE 6.9 mph - N/A   Clear
7:35 AM 28.4 °F 23.3 °F 23.0 °F 80% 29.86 in 10.0 mi NNE 4.6 mph - N/A   Clear
7:55 AM 26.6 °F 18.2 °F 23.0 °F 86% 29.87 in 10.0 mi NNE 8.1 mph 16.1 mph N/A   Clear
8:15 AM 26.6 °F 16.8 °F 23.0 °F 86% 29.90 in 10.0 mi North 10.4 mph - N/A   Clear
8:35 AM 26.6 °F 18.2 °F 21.2 °F 80% 29.91 in 10.0 mi NNE 8.1 mph 17.3 mph N/A   Clear
8:55 AM 26.6 °F 19.1 °F 19.4 °F 74% 29.90 in 10.0 mi NNE 6.9 mph 16.1 mph N/A   Clear
9:15 AM 26.6 °F 17.5 °F 19.4 °F 74% 29.91 in 10.0 mi NNE 9.2 mph 16.1 mph N/A   Clear
9:35 AM 26.6 °F 17.5 °F 19.4 °F 74% 29.92 in 10.0 mi NE 9.2 mph 15.0 mph N/A   Clear
9:55 AM 26.6 °F 16.8 °F 17.6 °F 69% 29.93 in 10.0 mi NE 10.4 mph - N/A   Clear
10:15 AM 26.6 °F 16.8 °F 17.6 °F 69% 29.93 in 10.0 mi NNE 10.4 mph - N/A   Clear
10:35 AM 26.6 °F 19.1 °F 17.6 °F 69% 29.92 in 10.0 mi Variable 6.9 mph 12.7 mph N/A   Clear
10:55 AM 26.6 °F 16.8 °F 17.6 °F 69% 29.91 in 10.0 mi NE 10.4 mph 20.7 mph N/A   Clear
11:15 AM 26.6 °F 16.8 °F 17.6 °F 69% 29.90 in 10.0 mi NNE 10.4 mph 18.4 mph N/A   Clear
11:35 AM 26.6 °F 16.8 °F 17.6 °F 69% 29.89 in 10.0 mi NE 10.4 mph 17.3 mph N/A   Clear
11:55 AM 26.6 °F 19.1 °F 17.6 °F 69% 29.89 in 10.0 mi Variable 6.9 mph 13.8 mph N/A   Clear
12:15 PM 26.6 °F 17.5 °F 17.6 °F 69% 29.88 in 10.0 mi NE 9.2 mph 16.1 mph N/A   Clear
12:35 PM 26.6 °F 18.2 °F 17.6 °F 69% 29.88 in 10.0 mi NE 8.1 mph 19.6 mph N/A   Clear
12:55 PM 26.6 °F 18.2 °F 17.6 °F 69% 29.87 in 10.0 mi NE 8.1 mph 17.3 mph N/A   Clear
1:15 PM 26.6 °F 18.2 °F 17.6 °F 69% 29.88 in 10.0 mi NE 8.1 mph 15.0 mph N/A   Clear
1:35 PM 26.6 °F 17.5 °F 17.6 °F 69% 29.86 in 10.0 mi NE 9.2 mph - N/A   Clear
1:55 PM 26.6 °F 15.7 °F 17.6 °F 69% 29.87 in 10.0 mi ENE 12.7 mph - N/A   Clear
2:15 PM 26.6 °F 15.7 °F 17.6 °F 69% 29.86 in 10.0 mi ENE 12.7 mph 19.6 mph N/A   Clear
2:35 PM 26.6 °F 16.2 °F 17.6 °F 69% 29.85 in 10.0 mi NE 11.5 mph 19.6 mph N/A   Clear
2:55 PM 26.6 °F 15.7 °F 17.6 °F 69% 29.85 in 10.0 mi NE 12.7 mph - N/A   Clear
3:15 PM 26.6 °F 15.2 °F 17.6 °F 69% 29.86 in 10.0 mi ENE 13.8 mph - N/A   Clear
3:35 PM 26.6 °F 16.2 °F 19.4 °F 74% 29.87 in 10.0 mi ENE 11.5 mph 17.3 mph N/A   Clear
3:55 PM 26.6 °F 17.5 °F 19.4 °F 74% 29.88 in 10.0 mi ENE 9.2 mph - N/A   Clear
4:15 PM 26.6 °F 19.1 °F 19.4 °F 74% 29.89 in 10.0 mi NE 6.9 mph 13.8 mph N/A   Clear
4:35 PM 24.8 °F 16.9 °F 19.4 °F 80% 29.88 in 10.0 mi NE 6.9 mph 13.8 mph N/A   Clear
4:55 PM 24.8 °F 16.1 °F 19.4 °F 80% 29.89 in 10.0 mi NE 8.1 mph 15.0 mph N/A   Clear
5:15 PM 24.8 °F 15.3 °F 19.4 °F 80% 29.88 in 10.0 mi NE 9.2 mph - N/A   Scattered Clouds
5:35 PM 24.8 °F 14.6 °F 19.4 °F 80% 29.88 in 10.0 mi ENE 10.4 mph 16.1 mph N/A   Overcast
5:55 PM 24.8 °F 14.6 °F 19.4 °F 80% 29.88 in 10.0 mi NE 10.4 mph - N/A   Overcast
6:15 PM 24.8 °F 14.0 °F 19.4 °F 80% 29.86 in 10.0 mi ENE 11.5 mph - N/A   Overcast
6:35 PM 24.8 °F 13.4 °F 19.4 °F 80% 29.86 in 10.0 mi ENE 12.7 mph - N/A   Overcast
6:55 PM 24.8 °F 12.9 °F 19.4 °F 80% 29.85 in 10.0 mi East 13.8 mph - N/A   Overcast
7:15 PM 24.8 °F 15.3 °F 19.4 °F 80% 29.86 in 10.0 mi ENE 9.2 mph 16.1 mph N/A   Overcast
7:35 PM 26.6 °F 19.1 °F 19.4 °F 74% 29.86 in 10.0 mi NE 6.9 mph - N/A   Overcast
7:55 PM 26.6 °F 17.5 °F 19.4 °F 74% 29.86 in 10.0 mi NE 9.2 mph - N/A   Overcast
8:15 PM 26.6 °F 18.2 °F 21.2 °F 80% 29.85 in 10.0 mi NE 8.1 mph 13.8 mph N/A   Overcast
8:35 PM 26.6 °F 16.8 °F 21.2 °F 80% 29.85 in 8.0 mi ENE 10.4 mph - N/A   Overcast
8:55 PM 24.8 °F 16.1 °F 23.0 °F 93% 29.85 in 2.5 mi NE 8.1 mph - N/A   Overcast
9:15 PM 26.6 °F 19.1 °F 24.8 °F 93% 29.85 in 2.0 mi ENE 6.9 mph - N/A   Overcast
9:35 PM 26.6 °F 19.1 °F 24.8 °F 93% 29.85 in 2.0 mi NE 6.9 mph - N/A   Overcast
9:55 PM 26.6 °F 18.2 °F 24.8 °F 93% 29.85 in 2.0 mi NE 8.1 mph 15.0 mph N/A   Overcast
10:15 PM 26.6 °F 17.5 °F 24.8 °F 93% 29.84 in 3.0 mi NE 9.2 mph 17.3 mph N/A   Overcast
10:35 PM 26.6 °F 16.2 °F 24.8 °F 93% 29.85 in 4.0 mi ENE 11.5 mph 17.3 mph N/A   Overcast
10:55 PM 26.6 °F 16.8 °F 24.8 °F 93% 29.84 in 3.0 mi NE 10.4 mph 17.3 mph N/A   Overcast
11:15 PM 26.6 °F 16.2 °F 24.8 °F 93% 29.85 in 2.5 mi NE 11.5 mph - N/A   Overcast
11:35 PM 26.6 °F 16.8 °F 24.8 °F 93% 29.85 in 2.0 mi NE 10.4 mph 18.4 mph N/A   Overcast
11:55 PM 24.8 °F 13.4 °F 23.0 °F 93% 29.86 in 2.0 mi NE 12.7 mph 19.6 mph N/A   Mostly Cloudy